Wind_Speed
12 10 9 7 6 4 4 1 0 0 1 3 6 7 8 9 9 8 8 8 8 8 7 7 7 7 8 8 8 8 8 8 7 7 7 7 7 7 7 7 6 7 7 8
13 11 9 8 7 6 4 3 2 3 2 4 6 7 7 10 10 9 8 8 8 7 6 6 6 6 7 7 7 7 7 7 7 7 7 7 7 7 7 7 7 7 7 7
14 12 11 10 8 8 6 5 4 4 4 6 6 7 8 8 10 10 8 7 6 5 5 5 5 5 6 6 6 7 7 7 7 7 7 7 7 7 7 7 8 8 7 7
16 15 14 12 11 9 8 7 7 7 8 8 8 8 8 8 9 10 8 7 6 5 4 5 6 5 6 6 7 7 7 7 7 7 7 7 7 7 7 8 8 8 7 7
17 17 16 15 13 11 10 9 10 10 11 10 9 10 9 10 9 8 6 6 5 4 5 5 6 7 7 7 7 8 8 7 7 7 8 8 8 7 7 7 8 8 8 7
17 18 17 16 15 13 12 12 12 13 13 11 10 12 10 10 9 9 7 5 5 5 5 6 7 7 8 8 8 8 8 8 8 8 8 9 8 7 7 7 8 8 8 8
17 18 17 16 16 16 14 13 13 14 14 12 12 13 12 10 9 8 7 6 6 5 6 7 8 8 9 9 9 9 9 8 8 8 8 9 8 8 8 8 9 9 9 9
17 17 18 17 16 16 15 15 15 15 14 12 12 12 12 10 9 9 9 7 7 7 8 8 8 10 10 10 9 10 9 9 8 8 9 9 9 9 10 10 10 10 11 10
16 16 17 16 16 16 15 15 16 16 15 14 14 13 12 11 10 10 10 9 9 9 10 10 10 11 11 11 11 11 11 10 9 9 10 10 10 11 11 11 12 12 12 12
17 17 17 16 16 17 15 14 16 16 16 16 15 13 13 11 10 11 12 11 11 11 11 12 12 12 12 12 12 12 12 12 11 10 11 11 12 12 12 13 13 14 14 14
17 17 17 18 19 17 17 17 17 17 17 17 16 15 15 13 13 12 13 13 12 12 12 13 12 13 13 13 14 14 14 13 13 12 12 12 13 13 14 14 15 15 15 15
17 18 18 19 18 17 17 18 18 19 20 19 18 16 16 15 14 13 14 14 13 14 13 13 13 15 15 15 15 15 15 15 14 13 14 14 15 15 15 16 16 16 16 16
18 19 19 19 20 21 20 18 19 20 20 21 21 20 18 17 16 15 15 15 14 15 15 14 14 16 16 16 16 17 16 16 16 15 15 16 17 17 18 18 17 18 18 18
19 20 19 19 19 21 22 20 20 20 22 23 23 21 20 19 19 19 17 15 16 16 17 15 16 17 18 18 18 19 18 18 18 17 17 17 18 18 18 19 20 20 20 20
22 22 20 19 20 22 23 23 22 23 24 24 24 21 20 21 20 20 20 18 18 18 18 17 18 19 19 19 20 20 20 19 19 19 19 19 19 20 20 21 21 21 21 21
25 23 22 21 22 23 23 23 24 25 25 24 24 22 20 21 21 20 20 20 20 20 21 20 20 20 20 21 20 20 21 21 21 20 20 21 21 21 22 22 23 23 23 23
27 26 25 24 23 23 23 23 24 24 25 24 24 23 23 22 22 20 21 22 22 22 22 22 22 22 22 21 22 23 22 22 23 23 22 22 22 23 24 24 24 24 24 24
28 28 27 26 24 24 24 23 23 23 24 25 25 25 24 24 24 24 24 24 24 23 23 23 22 23 23 24 24 24 24 25 26 25 24 24 25 25 26 26 26 25 25 25
28 28 28 28 27 25 25 24 24 25 26 26 27 27 27 27 27 26 26 26 25 26 25 25 24 24 25 26 27 27 27 27 27 26 26 26 26 27 27 26 26 26 26 25
27 28 29 28 28 27 26 26 27 28 28 27 27 28 29 29 31 29 29 29 27 27 27 27 27 27 28 28 28 28 28 27 27 27 27 28 28 28 28 27 27 27 27 26
27 28 29 29 30 30 28 27 28 29 29 27 28 29 30 31 31 30 29 29 28 28 28 29 29 30 30 30 30 29 28 28 28 28 28 28 28 28 29 29 29 28 28 27
29 30 31 31 31 31 30 30 29 29 29 29 29 29 30 31 31 30 30 30 30 30 30 30 30 31 31 31 31 30 29 29 29 28 28 27 28 29 29 29 29 29 28 27
31 31 32 32 33 32 31 31 31 31 31 30 30 30 31 32 32 31 31 31 30 30 31 31 32 31 30 30 30 29 29 29 30 29 29 28 29 30 30 30 30 30 29 29
30 30 31 32 32 32 32 32 33 34 33 33 32 32 32 33 33 32 32 31 31 31 32 33 31 30 30 31 31 29 29 30 31 31 31 31 31 31 31 31 31 31 31 30
31 31 32 33 33 33 34 33 32 33 33 34 34 33 33 33 32 32 32 32 32 32 33 34 31 30 31 31 31 30 30 31 31 31 31 31 32 32 32 31 32 32 31 31
32 32 33 33 33 34 33 33 32 32 33 33 33 32 32 32 32 32 32 31 32 33 33 32 31 31 31 31 31 31 31 32 33 33 33 33 32 32 32 31 31 31 32 32
Wind_Direction
192 188 182 179 181 193 213 232 180 111 337 345 352 360 4 3 6 6 12 17 21 27 29 28 27 36 38 37 33 29 27 28 23 18 15 13 11 11 12 10 7 6 6 6
197 191 189 193 200 208 224 241 245 232 284 315 321 332 343 352 352 349 350 0 4 10 14 13 20 25 22 23 22 21 19 17 14 13 13 13 11 10 9 8 6 5 5 5
199 195 201 206 209 216 226 243 250 258 269 278 296 301 315 330 332 336 334 337 347 353 355 356 5 6 7 4 4 6 7 8 8 6 4 6 7 5 358 353 354 355 355 2
202 201 206 211 213 221 230 249 256 270 272 270 272 282 293 304 316 322 322 336 330 340 341 348 351 346 348 350 349 353 353 355 358 359 1 360 354 350 348 349 350 353 353 353
206 209 213 214 215 225 237 246 250 254 257 265 267 275 289 296 307 311 316 328 326 329 336 340 337 333 338 340 340 342 342 343 345 346 345 348 346 344 342 344 345 345 342 342
212 215 218 219 219 225 237 242 245 249 252 258 266 274 279 292 301 305 308 321 330 333 322 327 330 330 330 327 328 328 331 334 336 335 335 341 343 341 338 338 338 336 333 331
214 215 220 224 227 230 235 243 245 250 254 263 269 274 280 290 296 295 295 309 324 333 328 324 317 320 320 320 321 322 322 321 325 329 330 331 331 331 327 326 327 329 327 322
215 213 218 223 229 231 236 243 246 253 258 263 265 275 275 280 284 286 291 301 309 309 315 318 316 316 316 317 316 317 316 312 315 321 322 322 321 320 318 318 320 322 321 317
223 221 221 226 231 232 237 244 247 253 257 262 263 268 266 269 275 285 290 292 298 299 298 304 307 308 310 312 314 312 310 307 307 308 310 312 313 311 310 312 314 316 316 314
226 223 221 225 230 233 238 246 250 252 258 257 263 260 263 265 272 278 281 279 290 295 295 296 298 303 305 305 309 309 306 302 301 301 301 303 306 306 308 309 308 309 309 307
225 229 224 224 231 234 240 245 249 253 255 257 260 258 264 268 270 274 281 277 284 290 294 295 296 299 298 298 301 303 301 300 298 297 296 297 300 303 306 307 305 305 304 303
225 230 230 227 231 234 239 245 247 250 251 255 259 261 261 264 267 271 277 278 282 287 286 285 286 290 291 290 293 296 298 297 295 294 294 294 296 298 300 301 302 302 303 304
226 233 234 231 231 231 234 241 247 249 251 254 258 264 262 264 265 268 270 270 277 280 279 282 283 284 286 288 290 293 293 292 290 289 290 292 293 295 296 296 298 302 305 301
235 239 241 239 236 234 236 241 245 249 252 255 259 262 263 260 262 266 267 266 272 277 278 280 283 282 283 286 289 289 290 289 287 288 289 291 292 293 294 295 298 301 302 301
241 245 244 243 241 241 240 242 246 250 253 257 259 261 263 263 260 264 269 270 270 274 276 278 281 281 282 286 288 286 286 284 285 285 286 288 292 293 294 297 298 299 300 300
240 244 248 247 245 244 245 242 244 251 256 258 260 261 261 263 265 269 272 270 269 273 274 275 278 279 281 283 284 284 284 282 282 282 283 286 290 292 295 296 296 297 298 299
238 243 247 247 245 244 244 244 243 248 253 256 261 263 263 266 272 276 275 271 270 273 275 277 278 278 282 281 282 283 280 282 283 284 285 286 288 290 291 293 293 294 295 296
239 242 246 248 246 245 247 246 246 247 251 254 258 263 265 264 267 270 273 273 271 273 276 278 280 282 282 281 280 281 281 283 283 283 284 284 286 287 288 289 291 291 292 293
239 241 245 247 247 247 247 248 249 250 254 256 258 261 264 266 268 270 273 274 273 274 277 279 281 283 285 284 283 283 281 280 281 282 282 284 285 286 286 286 288 289 290 291
238 241 245 247 250 249 250 249 251 254 258 260 260 263 265 267 269 272 275 276 276 276 278 280 281 282 283 283 285 284 282 280 280 280 280 282 283 285 287 287 287 287 289 289
238 241 245 249 251 252 253 252 253 256 261 263 263 265 266 267 271 272 274 278 278 278 278 280 280 282 281 282 282 281 280 279 279 279 280 282 282 284 286 286 287 286 286 287
241 244 247 250 252 254 256 255 255 259 261 261 263 264 267 270 272 273 275 277 280 279 277 279 280 280 280 281 281 281 279 278 277 278 279 279 281 284 285 285 286 285 284 285
245 247 250 252 256 258 256 256 259 262 262 263 266 267 268 271 273 274 275 276 278 276 276 278 279 278 280 281 281 281 281 280 278 277 278 280 282 283 284 284 284 285 285 286
248 251 253 255 257 258 260 260 261 262 263 266 269 271 272 273 273 274 276 277 276 275 275 278 277 276 276 278 280 278 280 280 278 276 276 279 281 283 284 284 284 285 286 285
248 251 253 256 259 261 262 262 263 264 265 267 271 273 273 274 276 276 278 276 275 274 275 276 276 276 278 278 279 279 280 279 278 277 278 279 280 282 283 284 284 283 283 284
248 251 253 256 258 260 263 263 264 266 268 269 271 272 273 274 276 276 276 276 276 276 276 277 278 278 278 278 279 279 279 279 279 279 278 278 280 282 283 284 283 284 285 284
Height
5911 5913 5914 5915 5916 5917 5918 5918 5918 5919 5919 5919 5919 5918 5918 5917 5917 5917 5916 5915 5914 5914 5913 5912 5910 5909 5908 5907 5907 5906 5905 5904 5903 5902 5901 5900 5899 5898 5896 5895 5894 5892 5891 5890
5910 5912 5913 5914 5915 5916 5917 5918 5918 5918 5918 5918 5918 5917 5917 5917 5917 5916 5916 5915 5914 5913 5913 5912 5910 5909 5908 5907 5907 5906 5905 5904 5903 5902 5901 5899 5898 5897 5896 5894 5893 5892 5891 5889
5907 5911 5911 5912 5913 5914 5915 5916 5917 5917 5917 5917 5917 5917 5917 5916 5916 5916 5915 5915 5914 5913 5913 5912 5910 5909 5909 5908 5907 5906 5905 5904 5903 5901 5900 5899 5898 5896 5895 5894 5892 5891 5890 5889
5905 5907 5908 5910 5911 5912 5913 5915 5915 5915 5915 5916 5916 5916 5916 5915 5915 5915 5914 5913 5912 5912 5912 5911 5910 5909 5908 5907 5906 5905 5904 5903 5902 5901 5899 5898 5897 5896 5895 5893 5892 5890 5889 5888
5902 5905 5906 5907 5909 5910 5911 5912 5913 5913 5913 5914 5914 5914 5915 5913 5913 5913 5912 5911 5911 5910 5910 5910 5909 5908 5907 5906 5905 5904 5903 5902 5901 5900 5898 5897 5896 5895 5893 5892 5891 5889 5888 5887
5899 5901 5903 5904 5906 5908 5909 5910 5911 5911 5911 5912 5912 5911 5912 5911 5911 5910 5909 5909 5909 5909 5908 5908 5907 5907 5906 5905 5904 5903 5902 5900 5899 5898 5897 5896 5894 5893 5892 5891 5890 5888 5887 5885
5895 5898 5900 5902 5903 5905 5906 5907 5908 5908 5908 5909 5909 5908 5909 5908 5908 5907 5907 5907 5907 5907 5906 5906 5905 5905 5904 5903 5902 5901 5900 5899 5898 5897 5895 5894 5893 5892 5890 5889 5888 5886 5885 5884
5892 5894 5897 5898 5900 5901 5903 5904 5905 5906 5905 5906 5906 5905 5906 5905 5905 5905 5905 5905 5905 5905 5905 5904 5903 5903 5902 5901 5900 5899 5898 5897 5896 5895 5893 5892 5891 5890 5888 5887 5885 5884 5882 5881
5888 5891 5894 5895 5896 5898 5899 5900 5901 5902 5902 5902 5902 5902 5902 5902 5902 5901 5901 5901 5902 5903 5902 5902 5901 5900 5899 5898 5897 5896 5895 5894 5893 5892 5891 5890 5888 5887 5886 5884 5883 5881 5880 5878
5884 5887 5889 5891 5893 5894 5896 5897 5897 5898 5898 5898 5899 5898 5898 5898 5898 5899 5899 5898 5899 5899 5899 5898 5898 5897 5897 5896 5895 5894 5893 5892 5891 5890 5888 5887 5886 5884 5883 5881 5880 5878 5876 5874
5880 5882 5885 5886 5888 5890 5892 5893 5893 5893 5894 5894 5894 5897 5895 5895 5895 5895 5895 5895 5895 5895 5895 5895 5894 5894 5894 5893 5892 5891 5890 5889 5888 5887 5885 5884 5883 5881 5879 5878 5876 5874 5872 5870
5876 5878 5879 5882 5884 5885 5886 5887 5888 5889 5889 5889 5890 5893 5891 5891 5891 5890 5891 5891 5891 5891 5891 5891 5891 5891 5890 5889 5888 5887 5886 5885 5884 5883 5882 5880 5879 5877 5875 5874 5872 5870 5868 5866
5871 5873 5875 5877 5880 5881 5881 5882 5883 5884 5884 5885 5885 5888 5887 5887 5886 5887 5887 5887 5887 5887 5887 5888 5888 5887 5886 5885 5885 5884 5883 5881 5880 5879 5877 5876 5875 5873 5871 5869 5867 5865 5864 5862
5867 5868 5871 5873 5874 5875 5876 5877 5877 5878 5879 5879 5880 5881 5882 5882 5882 5882 5882 5882 5883 5883 5883 5883 5883 5882 5882 5881 5880 5879 5878 5877 5875 5874 5873 5871 5870 5868 5866 5864 5862 5860 5859 5857
5862 5863 5865 5867 5869 5869 5870 5871 5872 5873 5873 5874 5875 5875 5876 5877 5876 5877 5876 5877 5877 5878 5878 5878 5878 5877 5876 5875 5874 5873 5873 5871 5870 5869 5868 5866 5864 5862 5861 5859 5857 5855 5853 5851
5856 5858 5860 5862 5863 5864 5864 5866 5867 5867 5868 5869 5870 5871 5871 5872 5871 5871 5871 5871 5872 5873 5873 5873 5873 5872 5871 5870 5869 5868 5867 5866 5865 5863 5862 5860 5858 5857 5855 5854 5852 5850 5847 5845
5851 5852 5854 5855 5857 5858 5859 5860 5861 5862 5863 5864 5864 5866 5866 5866 5865 5865 5865 5866 5866 5867 5867 5867 5866 5866 5865 5864 5863 5861 5860 5859 5858 5857 5856 5854 5852 5851 5849 5847 5845 5843 5841 5839
5845 5846 5847 5849 5851 5852 5855 5855 5855 5856 5858 5858 5859 5860 5860 5860 5860 5860 5860 5860 5860 5860 5861 5861 5860 5859 5858 5857 5856 5854 5854 5853 5852 5850 5849 5847 5846 5844 5842 5840 5838 5836 5834 5832
5838 5840 5841 5842 5844 5845 5847 5848 5849 5850 5851 5853 5853 5854 5854 5853 5854 5854 5854 5854 5854 5854 5854 5854 5853 5852 5851 5850 5849 5847 5846 5845 5844 5843 5841 5840 5838 5837 5834 5831 5830 5829 5827 5825
5832 5833 5835 5836 5837 5838 5842 5843 5843 5844 5844 5846 5846 5847 5848 5848 5848 5848 5848 5847 5847 5847 5847 5846 5846 5845 5844 5843 5841 5839 5838 5837 5836 5835 5833 5832 5831 5829 5827 5825 5823 5821 5819 5817
5825 5826 5828 5829 5830 5831 5834 5835 5837 5839 5839 5840 5839 5839 5840 5840 5840 5840 5839 5839 5839 5838 5838 5838 5837 5835 5835 5834 5833 5832 5831 5829 5828 5825 5825 5824 5823 5821 5819 5817 5815 5813 5811 5810
5818 5820 5821 5822 5823 5826 5827 5828 5830 5831 5831 5831 5831 5832 5832 5832 5831 5831 5831 5831 5831 5830 5830 5829 5828 5827 5826 5825 5824 5823 5822 5821 5819 5818 5817 5816 5814 5812 5810 5808 5807 5804 5802 5801
5810 5812 5814 5816 5817 5817 5818 5820 5821 5821 5822 5823 5823 5823 5824 5823 5823 5823 5823 5823 5822 5822 5821 5820 5819 5818 5817 5816 5815 5814 5813 5812 5811 5809 5808 5806 5805 5804 5801 5800 5798 5795 5793 5792
5803 5804 5806 5807 5808 5809 5811 5812 5812 5813 5813 5814 5815 5815 5815 5815 5814 5814 5814 5814 5813 5812 5812 5811 5810 5809 5809 5807 5806 5805 5804 5803 5802 5801 5799 5797 5796 5794 5793 5791 5789 5787 5785 5783
5795 5796 5797 5798 5800 5801 5802 5803 5804 5804 5805 5806 5806 5806 5806 5806 5806 5805 5805 5804 5803 5803 5802 5801 5800 5800 5800 5799 5797 5796 5795 5794 5792 5791 5790 5788 5787 5785 5783 5781 5779 5778 5776 5775
5787 5789 5789 5790 5792 5793 5794 5795 5795 5796 5796 5797 5797 5797 5797 5796 5796 5796 5795 5795 5795 5794 5793 5792 5791 5790 5790 5789 5787 5786 5785 5784 5783 5782 5780 5779 5777 5775 5774 5772 5770 5768 5767 5765